Weather History for Ogallala, NE

Change the Weather History Date:

Thursday, January 3, 2013

  Actual Average Record
Temperature  
Mean Temperature 15 °F -  
Max Temperature 25 °F 34 °F 60 °F (2003)
Min Temperature 5 °F 8 °F -20 °F (1974)
Degree Days  
Heating Degree Days 50    
Moisture  
Dew Point 12 °F    
Average Humidity 76    
Maximum Humidity 85    
Minimum Humidity 60    
Precipitation  
Precipitation 0.00 in - - ()
Sea Level Pressure  
Sea Level Pressure 30.26 in    
Wind  
Wind Speed 7 mph (West)    
Max Wind Speed 12 mph    
Max Gust Speed -    
Visibility 10 miles    
Events      
Averages and records for this station are not official NWS values.
T = Trace of Precipitation, MM = Missing Value Source: NWS Daily Summary

Daily Weather History Graph

Daily Weather History Graph

Search for Another Location

Airport:

Trip Planner

Search our weather history database for the weather conditions in past years. The results will help you decide how hot, cold, wet, or windy it might be!

Date:

Astronomy

Jan. 03, 2013 Rise Set
Actual Time 7:12 AM MST 4:31 PM MST
Civil Twilight 6:41 AM MST 5:02 PM MST
Nautical Twilight 6:07 AM MST 5:36 PM MST
Astronomical Twilight 5:33 AM MST 6:10 PM MST
Moon 11:12 PM MST (1/3) 10:21 AM MST (1/3)
Length of Visible Light 10h 20m
Length of Day
9h 18m
Waning Gibbous, 65% of the Moon is Illuminated
Jan 3
Waning Gibbous
Jan 4
Last Quarter
Jan 11
New
Jan 18
First Quarter
Jan 26
Full

Hourly Weather History & Observations

Time (MST) Temp. Windchill Dew Point Humidity Pressure Visibility Wind Dir Wind Speed Gust Speed Precip Events Conditions
12:15 AM 23.5 °F 13.7 °F 18.0 °F 79% 30.29 in 10.0 mi NW 9.2 mph - N/A   Overcast
12:35 AM 23.5 °F 14.5 °F 17.8 °F 79% 30.29 in 10.0 mi NW 8.1 mph - N/A   Overcast
12:55 AM 23.5 °F 12.4 °F 17.6 °F 78% 30.29 in 10.0 mi NW 11.5 mph - N/A   Overcast
1:15 AM 23.5 °F 13.0 °F 17.6 °F 78% 30.29 in 10.0 mi NW 10.4 mph - N/A   Overcast
1:35 AM 23.5 °F 13.0 °F 17.6 °F 78% 30.30 in 10.0 mi NW 10.4 mph - N/A   Overcast
1:55 AM 23.4 °F 14.3 °F 17.4 °F 78% 30.31 in 10.0 mi NW 8.1 mph - N/A   Overcast
2:15 AM 23.2 °F 12.6 °F 17.2 °F 78% 30.31 in 10.0 mi NNW 10.4 mph - N/A   Overcast
2:35 AM 23.0 °F 13.1 °F 17.2 °F 79% 30.31 in 10.0 mi NNW 9.2 mph - N/A   Overcast
2:55 AM 22.6 °F 12.6 °F 17.2 °F 80% 30.31 in 10.0 mi NW 9.2 mph - N/A   Overcast
3:15 AM 22.8 °F 12.2 °F 17.2 °F 79% 30.31 in 10.0 mi NW 10.4 mph - N/A   Overcast
3:35 AM 22.8 °F 13.6 °F 17.2 °F 79% 30.31 in 10.0 mi NW 8.1 mph - N/A   Overcast
3:55 AM 23.0 °F 13.9 °F 17.4 °F 79% 30.31 in 10.0 mi NW 8.1 mph - N/A   Overcast
4:15 AM 22.3 °F 14.9 °F 17.2 °F 81% 30.30 in 10.0 mi NW 5.8 mph - N/A   Overcast
4:35 AM 22.3 °F 13.9 °F 16.7 °F 79% 30.30 in 10.0 mi NW 6.9 mph - N/A   Overcast
4:55 AM 21.2 °F 12.6 °F 16.2 °F 81% 30.30 in 10.0 mi NW 6.9 mph - N/A   Overcast
5:15 AM 20.5 °F 10.8 °F 15.8 °F 82% 30.29 in 10.0 mi NW 8.1 mph - N/A   Overcast
5:35 AM 21.0 °F 11.4 °F 16.2 °F 81% 30.30 in 10.0 mi NW 8.1 mph - N/A   Overcast
5:55 AM 21.0 °F 12.4 °F 16.2 °F 81% 30.30 in 10.0 mi NW 6.9 mph - N/A   Overcast
6:35 AM 21.2 °F - 16.2 °F 81% 30.30 in 10.0 mi Calm Calm - N/A   Overcast
6:55 AM 21.2 °F 16.4 °F 16.5 °F 82% 30.31 in 10.0 mi WSW 3.5 mph - N/A   Overcast
7:15 AM 21.2 °F 14.9 °F 16.7 °F 83% 30.31 in 10.0 mi WSW 4.6 mph - N/A   Overcast
7:35 AM 21.2 °F - 16.7 °F 83% 30.31 in 10.0 mi Calm Calm - N/A   Overcast
7:55 AM 21.2 °F - 17.2 °F 85% 30.31 in 10.0 mi Calm Calm - N/A   Overcast
8:35 AM 20.3 °F 15.4 °F 16.3 °F 85% 30.32 in 10.0 mi West 3.5 mph - N/A   Mostly Cloudy
8:55 AM 21.2 °F 12.6 °F 16.5 °F 82% 30.32 in 10.0 mi West 6.9 mph - N/A   Scattered Clouds
9:15 AM 20.8 °F 9.7 °F 14.9 °F 78% 30.32 in 10.0 mi West 10.4 mph - N/A   Clear
9:35 AM 20.5 °F 9.2 °F 13.8 °F 75% 30.33 in 10.0 mi WSW 10.4 mph - N/A   Clear
9:55 AM 20.8 °F 10.4 °F 13.3 °F 73% 30.32 in 10.0 mi WSW 9.2 mph - N/A   Clear
10:15 AM 20.8 °F 9.7 °F 13.1 °F 72% 30.31 in 10.0 mi West 10.4 mph - N/A   Clear
10:35 AM 21.0 °F 9.9 °F 13.1 °F 71% 30.30 in 10.0 mi West 10.4 mph - N/A   Clear
10:55 AM 21.0 °F 9.3 °F 12.4 °F 69% 30.29 in 10.0 mi West 11.5 mph - N/A   Clear
11:15 AM 21.4 °F 11.1 °F 12.0 °F 67% 30.28 in 10.0 mi West 9.2 mph - N/A   Clear
11:35 AM 21.9 °F 12.5 °F 12.6 °F 67% 30.27 in 10.0 mi West 8.1 mph - N/A   Clear
11:55 AM 22.1 °F 14.7 °F 13.1 °F 68% 30.25 in 10.0 mi West 5.8 mph - N/A   Clear
12:15 PM 22.6 °F 15.3 °F 13.5 °F 68% 30.25 in 10.0 mi West 5.8 mph - N/A   Clear
12:35 PM 23.2 °F 14.1 °F 12.0 °F 62% 30.24 in 10.0 mi SW 8.1 mph - N/A   Clear
12:55 PM 23.9 °F 12.9 °F 11.8 °F 60% 30.24 in 10.0 mi WSW 11.5 mph - N/A   Clear
1:15 PM 24.4 °F 14.9 °F 12.6 °F 61% 30.23 in 10.0 mi WSW 9.2 mph - N/A   Clear
1:35 PM 24.6 °F 15.8 °F 12.6 °F 60% 30.23 in 10.0 mi West 8.1 mph - N/A   Clear
1:55 PM 24.8 °F 16.9 °F 12.7 °F 60% 30.23 in 10.0 mi West 6.9 mph - N/A   Clear
2:15 PM 24.6 °F 18.8 °F 13.1 °F 62% 30.23 in 10.0 mi West 4.6 mph - N/A   Clear
2:35 PM 24.6 °F 20.3 °F 13.3 °F 62% 30.23 in 10.0 mi West 3.5 mph - N/A   Clear
2:55 PM 25.2 °F 19.5 °F 13.5 °F 61% 30.23 in 10.0 mi West 4.6 mph - N/A   Clear
3:15 PM 23.9 °F - 13.6 °F 65% 30.22 in 10.0 mi Calm Calm - N/A   Clear
3:35 PM 23.9 °F - 13.1 °F 63% 30.22 in 10.0 mi Calm Calm - N/A   Clear
3:55 PM 23.5 °F - 13.3 °F 65% 30.22 in 10.0 mi Calm Calm - N/A   Clear
4:15 PM 22.8 °F 18.2 °F 12.4 °F 64% 30.22 in 10.0 mi West 3.5 mph - N/A   Clear
4:35 PM 18.7 °F - 10.4 °F 70% 30.21 in 10.0 mi Calm Calm - N/A   Clear
4:55 PM 15.3 °F 9.6 °F 7.9 °F 73% 30.22 in 10.0 mi NW 3.5 mph - N/A   Clear
5:15 PM 16.2 °F - 8.6 °F 72% 30.22 in 10.0 mi Calm Calm - N/A   Clear
5:35 PM 16.2 °F - 9.0 °F 73% 30.22 in 10.0 mi Calm Calm - N/A   Clear
5:55 PM 12.6 °F - 7.2 °F 79% 30.22 in 10.0 mi Calm Calm - N/A   Clear
6:15 PM 11.7 °F - 5.4 °F 76% 30.22 in 10.0 mi Calm Calm - N/A   Clear
6:35 PM 11.1 °F - 6.1 °F 80% 30.22 in 10.0 mi Calm Calm - N/A   Clear
6:55 PM 10.4 °F 4.0 °F 5.5 °F 81% 30.21 in 10.0 mi West 3.5 mph - N/A   Clear
7:15 PM 8.2 °F - 4.1 °F 83% 30.20 in 10.0 mi Calm Calm - N/A   Clear
7:35 PM 7.9 °F -0.7 °F 3.4 °F 82% 30.20 in 10.0 mi WSW 4.6 mph - N/A   Clear
7:55 PM 6.8 °F -0.1 °F 2.8 °F 84% 30.20 in 10.0 mi WSW 3.5 mph - N/A   Clear
8:15 PM 5.7 °F -3.2 °F 2.1 °F 85% 30.20 in 10.0 mi West 4.6 mph - N/A   Clear
8:35 PM 8.2 °F -0.3 °F 4.1 °F 83% 30.20 in 10.0 mi West 4.6 mph - N/A   Clear
8:55 PM 7.3 °F -2.8 °F 3.2 °F 83% 30.21 in 10.0 mi West 5.8 mph - N/A   Clear
9:15 PM 7.3 °F -4.1 °F 3.0 °F 82% 30.21 in 10.0 mi WSW 6.9 mph - N/A   Clear
9:35 PM 6.8 °F -2.0 °F 3.0 °F 84% 30.21 in 10.0 mi West 4.6 mph - N/A   Clear
9:55 PM 5.9 °F -8.0 °F 2.1 °F 84% 30.21 in 10.0 mi WSW 9.2 mph - N/A   Clear
10:15 PM 6.1 °F -6.8 °F 1.9 °F 83% 30.21 in 10.0 mi WSW 8.1 mph - N/A   Clear
10:35 PM 6.6 °F -8.0 °F 2.5 °F 83% 30.22 in 10.0 mi West 10.4 mph - N/A   Clear
10:55 PM 7.9 °F -7.2 °F 3.4 °F 82% 30.21 in 10.0 mi WSW 11.5 mph - N/A   Clear
11:15 PM 8.2 °F -4.1 °F 3.9 °F 83% 30.21 in 10.0 mi West 8.1 mph - N/A   Clear
11:35 PM 8.1 °F -5.3 °F 3.7 °F 83% 30.20 in 10.0 mi West 9.2 mph - N/A   Clear
11:55 PM 8.6 °F -3.7 °F 3.9 °F 81% 30.20 in 10.0 mi West 8.1 mph - N/A   Clear